Weather History for Bennington, VT

Change the Weather History Date:

Friday, February 21, 2014

  Actual Average Record
Temperature  
Mean Temperature 38 °F 26 °F  
Max Temperature 47 °F 36 °F 47 °F (2014)
Min Temperature 29 °F 17 °F 29 °F (2014)
Degree Days  
Heating Degree Days 27 39  
Month to date heating degree days 883 857  
Since 1 July heating degree days 4953 4988  
Cooling Degree Days 0 0  
Month to date cooling degree days 0 0  
Year to date cooling degree days 0 0  
Moisture  
Dew Point 33 °F    
Average Humidity 81    
Maximum Humidity 92    
Minimum Humidity 70    
Precipitation  
Precipitation 1.09 in 0.08 in 1.09 in (2014)
Month to date precipitation 2.93 1.57  
Year to date precipitation 5.85 4.32  
Sea Level Pressure  
Sea Level Pressure 29.79 in    
Wind  
Wind Speed 9 mph (SSE)    
Max Wind Speed 30 mph    
Max Gust Speed 40 mph    
Visibility 5 miles    
Events Fog , Rain , Thunderstorm    
T = Trace of Precipitation, MM = Missing Value Source: NWS Daily Summary

Daily Weather History Graph

Daily Weather History Graph

Search for Another Location

Airport:

Trip Planner

Search our weather history database for the weather conditions in past years. The results will help you decide how hot, cold, wet, or windy it might be!

Date:

Astronomy

Feb. 21, 2014 Rise Set
Actual Time 6:41 AM EST 5:32 PM EST
Civil Twilight 6:12 AM EST 6:01 PM EST
Nautical Twilight 5:39 AM EST 6:34 PM EST
Astronomical Twilight 5:07 AM EST 7:06 PM EST
Moon No Moon Rise 9:53 AM EST (2/21)
Length of Visible Light 11h 48m
Length of Day
10h 50m
Waning Gibbous, 61% of the Moon is Illuminated
Feb 21
Waning Gibbous
Feb 22
Last Quarter
Mar 1
New
Mar 8
First Quarter
Mar 16
Full

Hourly Weather History & Observations

Time (EST) Temp. Windchill Dew Point Humidity Pressure Visibility Wind Dir Wind Speed Gust Speed Precip Events Conditions
12:40 AM 36.0 °F 32.1 °F 30.0 °F 79% 30.00 in 10.0 mi SSE 4.6 mph - N/A   Overcast
12:54 AM 36.0 °F - 30.9 °F 82% 30.03 in 9.0 mi Calm Calm - 0.01 in Rain Light Rain
1:54 AM 36.0 °F 30.3 °F 32.0 °F 86% 30.01 in 4.0 mi East 6.9 mph - 0.15 in Rain Rain
2:16 AM 36.0 °F 28.5 °F 32.0 °F 86% 29.96 in 4.0 mi ESE 10.4 mph - 0.09 in Rain Rain
2:29 AM 37.0 °F 31.6 °F 33.1 °F 86% 29.95 in 4.0 mi East 6.9 mph - 0.13 in Rain Rain
2:54 AM 37.0 °F 31.6 °F 33.1 °F 86% 29.99 in 3.0 mi East 6.9 mph - 0.21 in Rain Rain
3:18 AM 37.0 °F 29.8 °F 33.1 °F 86% 29.97 in 2.0 mi ESE 10.4 mph - 0.11 in Rain Rain
3:31 AM 37.0 °F 30.4 °F 33.1 °F 86% 29.93 in 3.0 mi ESE 9.2 mph 19.6 mph 0.17 in Rain Rain
3:54 AM 37.0 °F 31.0 °F 33.1 °F 86% 29.95 in 4.0 mi ESE 8.1 mph - 0.24 in Rain Rain
4:54 AM 39.0 °F 32.3 °F 33.1 °F 79% 29.94 in 10.0 mi ESE 10.4 mph - 0.08 in   Overcast
5:50 AM 37.4 °F 31.4 °F 32.0 °F 81% 29.94 in 10.0 mi ESE 8.1 mph - N/A   Overcast
5:54 AM 39.0 °F 34.0 °F 33.1 °F 79% 29.96 in 10.0 mi ESE 6.9 mph - N/A   Overcast
6:54 AM 37.9 °F 32.1 °F 32.0 °F 79% 29.94 in 10.0 mi ESE 8.1 mph - N/A   Overcast
7:54 AM 39.0 °F 30.6 °F 30.9 °F 73% 29.92 in 10.0 mi ESE 15.0 mph - N/A   Overcast
8:30 AM 39.9 °F 32.1 °F 32.0 °F 73% 29.88 in 10.0 mi East 13.8 mph - N/A   Overcast
8:37 AM 39.0 °F 30.6 °F 30.9 °F 73% 29.87 in 10.0 mi East 15.0 mph 24.2 mph N/A   Overcast
8:54 AM 39.9 °F 33.9 °F 32.0 °F 73% 29.88 in 10.0 mi ENE 9.2 mph 18.4 mph N/A   Overcast
9:54 AM 42.1 °F 37.1 °F 33.1 °F 70% 29.86 in 10.0 mi NE 8.1 mph - N/A   Overcast
10:54 AM 42.1 °F 37.1 °F 34.0 °F 73% 29.83 in 10.0 mi SE 8.1 mph - N/A   Overcast
11:54 AM 42.1 °F 37.1 °F 33.1 °F 70% 29.80 in 10.0 mi SSE 8.1 mph 17.3 mph N/A   Overcast
12:27 PM 43.0 °F 37.7 °F 34.0 °F 71% 29.75 in 10.0 mi ESE 9.2 mph 24.2 mph N/A   Overcast
12:54 PM 43.0 °F 36.4 °F 35.1 °F 74% 29.73 in 10.0 mi SE 12.7 mph 21.9 mph N/A   Overcast
1:54 PM 45.0 °F 37.6 °F 37.0 °F 74% 29.65 in 10.0 mi SE 17.3 mph 31.1 mph N/A   Partly Cloudy
2:38 PM 46.0 °F 37.4 °F 37.9 °F 73% 29.60 in 10.0 mi SSE 25.3 mph 36.8 mph N/A   Mostly Cloudy
2:54 PM 46.0 °F 37.6 °F 39.0 °F 76% 29.62 in 10.0 mi SSE 24.2 mph 35.7 mph N/A   Mostly Cloudy
3:06 PM 46.0 °F 36.9 °F 39.0 °F 76% 29.59 in 10.0 mi SE 28.8 mph 40.3 mph N/A Thunderstorm Mostly Cloudy
3:26 PM 46.0 °F 37.6 °F 37.9 °F 73% 29.61 in 10.0 mi SSE 24.2 mph 34.5 mph N/A Thunderstorm Thunderstorm
3:41 PM 44.1 °F 36.2 °F 37.9 °F 79% 29.61 in 10.0 mi South 18.4 mph 27.6 mph 0.00 in Thunderstorm Overcast
3:49 PM 44.6 °F 36.4 °F 37.4 °F 76% 29.61 in 9.0 mi SSE 20.7 mph 31.1 mph 0.00 in Rain Light Rain
3:54 PM 44.1 °F 37.7 °F 37.9 °F 79% 29.62 in 4.0 mi South 12.7 mph 31.1 mph 0.01 in Rain Rain
4:10 PM 42.1 °F 36.6 °F 37.9 °F 85% 29.62 in 1.5 mi SE 9.2 mph - 0.08 in Rain Rain
4:19 PM 42.1 °F 37.7 °F 37.9 °F 85% 29.66 in 0.5 mi Variable 6.9 mph - 0.21 in Fog , Rain Heavy Rain
4:31 PM 43.0 °F 37.2 °F 39.0 °F 86% 29.70 in 1.8 mi West 10.4 mph 16.1 mph 0.25 in Rain Light Rain
4:33 PM 42.1 °F 35.2 °F 39.0 °F 89% 29.70 in 2.0 mi West 12.7 mph 16.1 mph 0.26 in Rain Rain
4:39 PM 41.0 °F 33.9 °F 37.0 °F 86% 29.71 in 1.8 mi WNW 12.7 mph 21.9 mph 0.28 in Rain Rain
4:46 PM 39.9 °F 33.4 °F 36.0 °F 86% 29.72 in 2.5 mi WSW 10.4 mph 21.9 mph 0.30 in Rain Light Rain
4:54 PM 39.9 °F 33.4 °F 36.0 °F 86% 29.73 in 5.0 mi SW 10.4 mph - 0.30 in Rain Light Rain
5:03 PM 39.9 °F 34.5 °F 36.0 °F 86% 29.72 in 7.0 mi SSW 8.1 mph - 0.01 in Rain Light Rain
5:54 PM 39.0 °F 34.8 °F 36.0 °F 89% 29.79 in 10.0 mi SSW 5.8 mph - 0.05 in   Overcast
6:02 PM 39.0 °F 35.7 °F 35.1 °F 86% 29.76 in 8.0 mi SW 4.6 mph - 0.01 in Rain Light Rain
6:54 PM 37.9 °F - 35.1 °F 89% 29.74 in 10.0 mi North - - 0.04 in   Overcast
7:02 PM 37.0 °F 34.5 °F 36.0 °F 96% 29.73 in 2.5 mi SW 3.5 mph - N/A   Overcast
7:10 PM 36.0 °F 32.1 °F 34.0 °F 93% 29.73 in 1.8 mi West 4.6 mph - N/A   Overcast
7:19 PM 37.0 °F - 35.1 °F 93% 29.74 in 1.5 mi Calm Calm - N/A   Overcast
7:25 PM 36.0 °F 32.1 °F 34.0 °F 93% 29.75 in 3.0 mi SSW 4.6 mph - N/A   Mostly Cloudy
7:41 PM 37.0 °F 34.5 °F 35.1 °F 93% 29.76 in 10.0 mi WSW 3.5 mph - N/A   Overcast
7:54 PM 36.0 °F - 33.1 °F 89% 29.78 in 9.0 mi Calm Calm - N/A   Mostly Cloudy
8:16 PM 36.0 °F 31.1 °F 35.1 °F 97% 29.77 in 1.8 mi SSW 5.8 mph - N/A   Scattered Clouds
8:26 PM 37.0 °F 32.4 °F 35.1 °F 93% 29.77 in 4.0 mi SW 5.8 mph - N/A   Scattered Clouds
8:42 PM 35.1 °F 31.0 °F 33.1 °F 92% 29.78 in 1.8 mi SSW 4.6 mph - N/A   Partly Cloudy
8:54 PM 35.1 °F 30.1 °F 32.0 °F 89% 29.79 in 1.5 mi SSW 5.8 mph - N/A   Clear
9:03 PM 33.1 °F 28.7 °F 30.9 °F 92% 29.77 in 2.0 mi SSW 4.6 mph - N/A   Clear
9:13 PM 32.0 °F 27.5 °F 30.0 °F 92% 29.78 in 1.5 mi SSW 4.6 mph - N/A   Clear
9:31 PM 30.9 °F 27.5 °F 28.9 °F 92% 29.78 in 1.0 mi SE 3.5 mph - N/A   Mist
9:38 PM 30.9 °F 26.2 °F 28.9 °F 92% 29.78 in 0.5 mi South 4.6 mph - N/A Fog Light Freezing Fog
9:54 PM 30.9 °F 25.2 °F 28.9 °F 92% 29.80 in 0.8 mi SSE 5.8 mph - N/A   Mist
10:09 PM 30.0 °F 25.2 °F 28.0 °F 92% 29.78 in 0.2 mi SSE 4.6 mph - N/A Fog Light Freezing Fog
10:21 PM 30.0 °F 26.5 °F 28.9 °F 96% 29.77 in 0.5 mi SE 3.5 mph - N/A Fog Light Freezing Fog
10:48 PM 30.2 °F - 28.4 °F 93% 29.78 in 2.0 mi Calm Calm - N/A   Overcast
10:54 PM 30.0 °F - 28.0 °F 92% 29.80 in 1.0 mi Calm Calm - N/A   Overcast
11:01 PM 30.0 °F - 27.0 °F 88% 29.78 in 0.2 mi Calm Calm - N/A Fog Light Freezing Fog
11:09 PM 30.0 °F 25.2 °F 28.0 °F 92% 29.79 in 0.5 mi South 4.6 mph - N/A Fog Light Freezing Fog
11:18 PM 30.9 °F 27.5 °F 28.9 °F 92% 29.79 in 2.5 mi SSW 3.5 mph - N/A   Mostly Cloudy
11:27 PM 28.9 °F - 27.0 °F 92% 29.80 in 0.8 mi Calm Calm - N/A   Mostly Cloudy
11:31 PM 28.9 °F - 28.0 °F 96% 29.80 in 0.2 mi Calm Calm - N/A Fog Light Freezing Fog
11:37 PM 30.0 °F 24.1 °F 28.0 °F 92% 29.80 in 0.5 mi SW 5.8 mph - N/A Fog Light Freezing Fog
11:42 PM 32.0 °F 26.4 °F 28.9 °F 88% 29.80 in 3.0 mi SW 5.8 mph - N/A   Scattered Clouds
11:54 PM 33.1 °F 27.7 °F 28.9 °F 85% 29.83 in 10.0 mi SW 5.8 mph - N/A   Partly Cloudy